| time (UTC) | temp C | wind direction | speed KPH | gust KPH | rain 1hr cm | rain 24hr cm | rain mn cm | humidity % | barometer mb |
| 20260505004345 | 17 | 302 | 1.6 | 1.6 | 0.00 | 0.00 | 0.00 | 72 | 1025.1 |
| 20260505003846 | 17 | 301 | 1.6 | 1.6 | 0.00 | 0.00 | 0.00 | 71 | 1025.1 |
| 20260505003345 | 17 | 325 | 1.6 | 1.6 | 0.00 | 0.00 | 0.00 | 74 | 1025.1 |
| 20260505002845 | 16 | 324 | 1.6 | 3.2 | 0.00 | 0.00 | 0.00 | 72 | 1024.7 |
| 20260505002345 | 16 | 324 | 0.0 | 0.0 | 0.00 | 0.00 | 0.00 | 77 | 1024.7 |
| 20260505001846 | 15 | 325 | 1.6 | 1.6 | 0.00 | 0.00 | 0.00 | 78 | 1025.1 |
| 20260505001345 | 15 | 323 | 1.6 | 1.6 | 0.00 | 0.00 | 0.00 | 80 | 1024.7 |
| 20260505000845 | 15 | 310 | 1.6 | 3.2 | 0.00 | 0.00 | 0.00 | 82 | 1024.7 |
| 20260505000346 | 15 | 343 | 1.6 | 1.6 | 0.00 | 0.00 | 0.00 | 82 | 1024.7 |
| 20260504235845 | 15 | 309 | 1.6 | 1.6 | 0.00 | 0.00 | 0.00 | 83 | 1024.7 |
| 20260504235345 | 15 | 279 | 1.6 | 3.2 | 0.00 | 0.00 | 0.00 | 85 | 1024.7 |
| 20260504234845 | 15 | 345 | 0.0 | 1.6 | 0.00 | 0.00 | 0.00 | 88 | 1024.7 |
| 20260504234346 | 14 | 345 | 1.6 | 1.6 | 0.00 | 0.00 | 0.00 | 89 | 1024.7 |
| 20260504233846 | 14 | 345 | 0.0 | 0.0 | 0.00 | 0.00 | 0.00 | 90 | 1024.7 |
| 20260504233346 | 14 | 345 | 0.0 | 0.0 | 0.00 | 0.00 | 0.00 | 91 | 1024.7 |
| 20260504232845 | 13 | 346 | 0.0 | 1.6 | 0.00 | 0.00 | 0.28 | 92 | 1024.4 |
| 20260504232346 | 13 | 346 | 0.0 | 1.6 | 0.00 | 0.00 | 0.28 | 92 | 1024.4 |
| 20260504231845 | 13 | 345 | 0.0 | 0.0 | 0.00 | 0.00 | 0.28 | 93 | 1024.4 |
| 20260504231346 | 13 | 345 | 0.0 | 0.0 | 0.00 | 0.00 | 0.28 | 93 | 1024.0 |
| 20260504230846 | 13 | 302 | 0.0 | 0.0 | 0.00 | 0.00 | 0.28 | 94 | 1024.0 |
| 20260504230345 | 12 | 302 | 0.0 | 1.6 | 0.00 | 0.00 | 0.28 | 94 | 1024.0 |
| 20260504225845 | 12 | 302 | 1.6 | 1.6 | 0.00 | 0.00 | 0.28 | 94 | 1024.0 |
| 20260504225346 | 12 | 310 | 0.0 | 0.0 | 0.00 | 0.00 | 0.28 | 94 | 1024.0 |
| 20260504224845 | 12 | 310 | 1.6 | 1.6 | 0.00 | 0.00 | 0.28 | 94 | 1024.0 |
| 20260504224346 | 12 | 310 | 0.0 | 0.0 | 0.00 | 0.00 | 0.28 | 94 | 1024.0 |
| 20260504223845 | 12 | 310 | 0.0 | 0.0 | 0.00 | 0.00 | 0.28 | 94 | 1024.0 |
| 20260504223346 | 11 | 309 | 1.6 | 1.6 | 0.00 | 0.00 | 0.28 | 94 | 1023.7 |
| 20260504222845 | 11 | 276 | 1.6 | 3.2 | 0.00 | 0.00 | 0.28 | 94 | 1023.7 |
| 20260504222346 | 11 | 278 | 3.2 | 3.2 | 0.00 | 0.00 | 0.28 | 94 | 1023.7 |
| 20260504221845 | 11 | 302 | 3.2 | 3.2 | 0.00 | 0.00 | 0.28 | 94 | 1023.4 |
| 20260504221346 | 11 | 310 | 1.6 | 3.2 | 0.00 | 0.00 | 0.28 | 94 | 1023.4 |
| 20260504220845 | 10 | 316 | 1.6 | 1.6 | 0.00 | 0.00 | 0.28 | 94 | 1023.4 |
| 20260504220347 | 10 | 316 | 0.0 | 1.6 | 0.00 | 0.00 | 0.28 | 94 | 1023.4 |
| 20260504215845 | 10 | 316 | 0.0 | 1.6 | 0.00 | 0.00 | 0.28 | 93 | 1023.4 |
| 20260504215345 | 10 | 316 | 0.0 | 0.0 | 0.00 | 0.00 | 0.28 | 93 | 1023.4 |
| 20260504214845 | 10 | 305 | 0.0 | 1.6 | 0.00 | 0.00 | 0.28 | 93 | 1023.0 |
| 20260504214345 | 10 | 306 | 3.2 | 3.2 | 0.00 | 0.00 | 0.28 | 93 | 1023.0 |
| 20260504213845 | 10 | 340 | 1.6 | 1.6 | 0.00 | 0.00 | 0.28 | 93 | 1023.4 |
| 20260504213346 | 10 | 339 | 0.0 | 0.0 | 0.00 | 0.00 | 0.28 | 93 | 1023.0 |
| 20260504212846 | 10 | 339 | 0.0 | 3.2 | 0.00 | 0.00 | 0.28 | 93 | 1023.0 |
| 20260504212345 | 10 | 307 | 0.0 | 0.0 | 0.00 | 0.00 | 0.28 | 93 | 1023.0 |
| 20260504211846 | 10 | 307 | 0.0 | 1.6 | 0.00 | 0.00 | 0.28 | 93 | 1023.0 |
| 20260504211345 | 10 | 307 | 1.6 | 1.6 | 0.00 | 0.00 | 0.28 | 92 | 1023.0 |
| 20260504210845 | 10 | 307 | 0.0 | 0.0 | 0.00 | 0.00 | 0.28 | 93 | 1023.0 |
| 20260504210346 | 10 | 307 | 0.0 | 0.0 | 0.00 | 0.00 | 0.28 | 93 | 1023.0 |
| 20260504205845 | 10 | 302 | 0.0 | 0.0 | 0.00 | 0.00 | 0.28 | 93 | 1023.0 |
| 20260504205346 | 10 | 302 | 0.0 | 1.6 | 0.00 | 0.00 | 0.28 | 92 | 1023.0 |
| 20260504204845 | 10 | 301 | 1.6 | 1.6 | 0.00 | 0.00 | 0.28 | 92 | 1023.0 |
| 20260504204345 | 10 | 302 | 0.0 | 0.0 | 0.00 | 0.00 | 0.28 | 92 | 1022.7 |
| 20260504203845 | 11 | 302 | 0.0 | 0.0 | 0.00 | 0.00 | 0.28 | 92 | 1023.0 |
| 20260504203346 | 11 | 302 | 0.0 | 0.0 | 0.00 | 0.00 | 0.28 | 92 | 1022.7 |
| 20260504202846 | 11 | 301 | 0.0 | 0.0 | 0.00 | 0.00 | 0.28 | 92 | 1022.7 |
| 20260504202347 | 11 | 301 | 0.0 | 0.0 | 0.00 | 0.00 | 0.28 | 92 | 1022.7 |
| 20260504201846 | 11 | 301 | 1.6 | 1.6 | 0.00 | 0.00 | 0.28 | 91 | 1022.7 |
| 20260504201346 | 11 | 301 | 0.0 | 1.6 | 0.00 | 0.00 | 0.28 | 91 | 1022.7 |
| 20260504200845 | 11 | 302 | 1.6 | 1.6 | 0.00 | 0.00 | 0.28 | 91 | 1022.7 |
| 20260504200347 | 12 | 302 | 1.6 | 1.6 | 0.00 | 0.00 | 0.28 | 91 | 1022.7 |
| 20260504195851 | 12 | 302 | 1.6 | 1.6 | 0.00 | 0.00 | 0.28 | 91 | 1022.7 |
| 20260504195346 | 12 | 301 | 1.6 | 1.6 | 0.00 | 0.00 | 0.28 | 91 | 1022.7 |
| 20260504194845 | 12 | 301 | 0.0 | 1.6 | 0.00 | 0.00 | 0.28 | 91 | 1022.4 |
| 20260504194345 | 12 | 296 | 1.6 | 3.2 | 0.00 | 0.00 | 0.28 | 90 | 1022.7 |
| 20260504193845 | 12 | 286 | 1.6 | 1.6 | 0.00 | 0.00 | 0.28 | 90 | 1022.7 |
| 20260504193346 | 12 | 265 | 1.6 | 1.6 | 0.00 | 0.00 | 0.28 | 90 | 1022.7 |
| 20260504192846 | 12 | 266 | 1.6 | 1.6 | 0.00 | 0.00 | 0.28 | 90 | 1022.7 |
| 20260504192346 | 13 | 268 | 3.2 | 3.2 | 0.00 | 0.00 | 0.28 | 90 | 1022.7 |
| 20260504191849 | 13 | 199 | 4.8 | 4.8 | 0.00 | 0.00 | 0.28 | 90 | 1022.7 |
| 20260504191348 | 13 | 242 | 4.8 | 9.7 | 0.00 | 0.00 | 0.28 | 89 | 1022.7 |
| 20260504190845 | 13 | 219 | 8.0 | 9.7 | 0.00 | 0.00 | 0.28 | 88 | 1022.7 |
| 20260504190346 | 12 | 227 | 4.8 | 8.0 | 0.00 | 0.00 | 0.28 | 89 | 1022.7 |
| 20260504185846 | 12 | 199 | 3.2 | 8.0 | 0.00 | 0.00 | 0.28 | 89 | 1022.7 |
| 20260504185347 | 13 | 230 | 4.8 | 8.0 | 0.00 | 0.00 | 0.28 | 89 | 1022.7 |
| 20260504184846 | 13 | 212 | 6.4 | 8.0 | 0.00 | 0.00 | 0.28 | 89 | 1022.7 |
| 20260504184345 | 13 | 210 | 3.2 | 9.7 | 0.00 | 0.00 | 0.28 | 89 | 1022.4 |
| 20260504183846 | 13 | 185 | 6.4 | 8.0 | 0.00 | 0.00 | 0.28 | 90 | 1022.7 |
| 20260504183346 | 13 | 206 | 4.8 | 11.3 | 0.00 | 0.00 | 0.28 | 90 | 1022.7 |
| 20260504182846 | 12 | 201 | 1.6 | 4.8 | 0.00 | 0.00 | 0.28 | 91 | 1022.7 |
| 20260504182346 | 12 | 6 | 0.0 | 1.6 | 0.00 | 0.00 | 0.28 | 90 | 1022.7 |
| 20260504181848 | 12 | 5 | 0.0 | 1.6 | 0.00 | 0.00 | 0.28 | 90 | 1022.7 |
| 20260504181346 | 12 | 6 | 0.0 | 0.0 | 0.00 | 0.00 | 0.28 | 89 | 1022.4 |
| 20260504180846 | 12 | 6 | 0.0 | 0.0 | 0.00 | 0.00 | 0.28 | 89 | 1022.4 |
| 20260504180346 | 12 | 6 | 0.0 | 0.0 | 0.00 | 0.00 | 0.28 | 89 | 1022.4 |
| 20260504175847 | 13 | 6 | 1.6 | 1.6 | 0.00 | 0.00 | 0.28 | 89 | 1022.4 |
| 20260504175346 | 13 | 6 | 0.0 | 0.0 | 0.00 | 0.00 | 0.28 | 89 | 1022.4 |
| 20260504174845 | 13 | 6 | 1.6 | 1.6 | 0.00 | 0.00 | 0.28 | 89 | 1022.7 |
| 20260504174346 | 13 | 6 | 0.0 | 0.0 | 0.00 | 0.00 | 0.28 | 88 | 1022.7 |
| 20260504173845 | 13 | 349 | 1.6 | 3.2 | 0.00 | 0.00 | 0.28 | 88 | 1022.4 |
| 20260504173345 | 13 | 314 | 1.6 | 1.6 | 0.00 | 0.00 | 0.28 | 87 | 1022.7 |
| 20260504172847 | 13 | 295 | 3.2 | 3.2 | 0.00 | 0.00 | 0.28 | 87 | 1022.4 |
| 20260504172349 | 13 | 296 | 4.8 | 8.0 | 0.00 | 0.00 | 0.28 | 87 | 1022.7 |
| 20260504171847 | 13 | 310 | 6.4 | 9.7 | 0.00 | 0.00 | 0.28 | 86 | 1022.4 |
| 20260504171347 | 13 | 321 | 4.8 | 4.8 | 0.00 | 0.00 | 0.28 | 86 | 1022.4 |
| 20260504170846 | 13 | 315 | 1.6 | 4.8 | 0.00 | 0.00 | 0.28 | 85 | 1022.7 |
| 20260504170346 | 13 | 310 | 4.8 | 3.2 | 0.00 | 0.00 | 0.28 | 85 | 1022.7 |
| 20260504160346 | 14 | 191 | 4.8 | 4.8 | 0.00 | 0.00 | 0.28 | 79 | 1022.4 |
| 20260504150845 | 12 | 286 | 0.0 | 0.0 | 0.00 | 0.00 | 0.28 | 76 | 1022.4 |
| 20260504150349 | 12 | 286 | 1.6 | 1.6 | 0.00 | 0.00 | 0.28 | 76 | 1022.4 |
| 20260504140846 | 14 | 286 | 0.0 | 1.6 | 0.00 | 0.00 | 0.28 | 66 | 1022.4 |
| 20260504140346 | 14 | 292 | 1.6 | 1.6 | 0.00 | 0.00 | 0.28 | 67 | 1022.4 |
| 20260504130346 | 15 | 266 | 1.6 | 1.6 | 0.00 | 0.00 | 0.28 | 64 | 1022.7 |
| 20260504110345 | 15 | 230 | 1.6 | 1.6 | 0.00 | 0.00 | 0.28 | 71 | 1022.0 |
| 20260504100345 | 15 | 158 | 0.0 | 0.0 | 0.00 | 0.00 | 0.28 | 85 | 1021.3 |
| 20260504081446 | 15 | 194 | 4.8 | 11.3 | 0.00 | 0.00 | 0.28 | 84 | 1019.6 |
| 20260504080845 | 15 | 199 | 4.8 | 12.9 | 0.00 | 0.00 | 0.28 | 83 | 1019.6 |
| 20260504080345 | 15 | 201 | 8.0 | 12.9 | 0.00 | 0.00 | 0.28 | 82 | 1020.0 |
| 20260504070346 | 16 | 254 | 11.3 | 14.5 | 0.00 | 0.00 | 0.28 | 76 | 1019.3 |
| 20260504050346 | 15 | 246 | 3.2 | 9.7 | 0.15 | 0.00 | 0.28 | 90 | 1018.3 |
| 20260504045846 | 15 | 234 | 4.8 | 12.9 | 0.13 | 0.00 | 0.28 | 88 | 1018.3 |
| 20260504045345 | 16 | 228 | 4.8 | 9.7 | 0.10 | 0.00 | 0.25 | 86 | 1018.6 |
| 20260504044845 | 16 | 257 | 6.4 | 9.7 | 0.10 | 0.00 | 0.23 | 82 | 1018.6 |
| 20260504044347 | 16 | 228 | 4.8 | 11.3 | 0.10 | 0.00 | 0.23 | 82 | 1018.3 |
| 20260504043845 | 15 | 183 | 9.7 | 11.3 | 0.10 | 0.00 | 0.23 | 86 | 1018.3 |
| 20260504043347 | 15 | 170 | 8.0 | 16.1 | 0.10 | 0.00 | 0.23 | 86 | 1018.3 |
| 20260504042845 | 15 | 188 | 16.1 | 17.7 | 0.10 | 0.00 | 0.23 | 86 | 1018.6 |
| 20260504042346 | 15 | 170 | 8.0 | 16.1 | 0.08 | 0.00 | 0.23 | 87 | 1018.6 |
| 20260504041846 | 16 | 186 | 11.3 | 17.7 | 0.03 | 0.00 | 0.20 | 81 | 1018.6 |
| 20260504041346 | 18 | 184 | 9.7 | 12.9 | 0.00 | 0.00 | 0.13 | 72 | 1018.3 |
| 20260504040845 | 17 | 230 | 6.4 | 9.7 | 0.00 | 0.00 | 0.13 | 75 | 1018.3 |
| 20260504040346 | 17 | 213 | 11.3 | 14.5 | 0.00 | 0.00 | 0.13 | 74 | 1018.6 |
| 20260504035845 | 17 | 228 | 6.4 | 9.7 | 0.00 | 0.00 | 0.13 | 76 | 1018.3 |
| 20260504035345 | 17 | 225 | 6.4 | 9.7 | 0.00 | 0.00 | 0.13 | 75 | 1018.3 |
| 20260504034846 | 16 | 281 | 1.6 | 9.7 | 0.00 | 0.00 | 0.13 | 78 | 1018.3 |
| 20260504034345 | 17 | 206 | 12.9 | 17.7 | 0.00 | 0.00 | 0.13 | 74 | 1018.3 |
| 20260504033846 | 17 | 195 | 12.9 | 17.7 | 0.00 | 0.00 | 0.13 | 77 | 1018.3 |
| 20260504033346 | 17 | 200 | 8.0 | 20.9 | 0.00 | 0.00 | 0.13 | 79 | 1018.3 |
| 20260504032845 | 17 | 223 | 12.9 | 17.7 | 0.00 | 0.00 | 0.13 | 77 | 1018.6 |
| 20260504032346 | 17 | 252 | 16.1 | 20.9 | 0.00 | 0.00 | 0.13 | 75 | 1018.6 |
| 20260504031845 | 17 | 203 | 8.0 | 11.3 | 0.00 | 0.00 | 0.13 | 78 | 1018.3 |
| 20260504031346 | 17 | 195 | 8.0 | 12.9 | 0.00 | 0.00 | 0.13 | 82 | 1018.3 |
| 20260504030846 | 16 | 303 | 3.2 | 16.1 | 0.00 | 0.00 | 0.13 | 85 | 1018.6 |
| 20260504030345 | 16 | 208 | 8.0 | 17.7 | 0.00 | 0.00 | 0.13 | 84 | 1018.3 |
| 20260504025845 | 17 | 240 | 12.9 | 22.5 | 0.00 | 0.00 | 0.13 | 80 | 1018.6 |
| 20260504025346 | 17 | 253 | 12.9 | 17.7 | 0.03 | 0.00 | 0.13 | 77 | 1018.6 |
| 20260504024847 | 18 | 254 | 14.5 | 22.5 | 0.05 | 0.00 | 0.13 | 74 | 1019.0 |
| 20260504024345 | 18 | 227 | 11.3 | 14.5 | 0.08 | 0.00 | 0.13 | 74 | 1018.6 |
| 20260504023846 | 18 | 213 | 8.0 | 17.7 | 0.08 | 0.00 | 0.13 | 73 | 1018.6 |
| 20260504023346 | 18 | 226 | 12.9 | 16.1 | 0.08 | 0.00 | 0.13 | 73 | 1018.6 |
| 20260504022845 | 18 | 201 | 11.3 | 16.1 | 0.08 | 0.00 | 0.13 | 72 | 1018.6 |
| 20260504022345 | 17 | 246 | 6.4 | 11.3 | 0.08 | 0.00 | 0.13 | 78 | 1018.6 |
| 20260504021845 | 17 | 211 | 8.0 | 16.1 | 0.08 | 0.00 | 0.13 | 80 | 1019.0 |
| 20260504021345 | 16 | 223 | 4.8 | 11.3 | 0.08 | 0.00 | 0.13 | 83 | 1019.0 |
| 20260504020845 | 16 | 240 | 1.6 | 3.2 | 0.08 | 0.00 | 0.13 | 87 | 1019.0 |
| 20260504020345 | 15 | 251 | 0.0 | 1.6 | 0.08 | 0.00 | 0.13 | 85 | 1019.0 |
| 20260504015845 | 15 | 280 | 1.6 | 3.2 | 0.05 | 0.00 | 0.13 | 83 | 1019.0 |
| 20260504015345 | 16 | 300 | 3.2 | 4.8 | 0.03 | 0.00 | 0.13 | 83 | 1019.0 |
| 20260504014849 | 17 | 221 | 4.8 | 8.0 | 0.00 | 0.00 | 0.08 | 81 | 1019.0 |
| 20260504014345 | 18 | 185 | 8.0 | 16.1 | 0.03 | 0.00 | 0.05 | 72 | 1019.0 |
| 20260504013845 | 18 | 185 | 11.3 | 16.1 | 0.05 | 0.00 | 0.05 | 71 | 1019.0 |
| 20260504013346 | 18 | 270 | 8.0 | 11.3 | 0.05 | 0.00 | 0.05 | 70 | 1018.6 |
| 20260504012845 | 18 | 263 | 4.8 | 9.7 | 0.05 | 0.00 | 0.05 | 70 | 1018.6 |
| 20260504012345 | 18 | 246 | 4.8 | 11.3 | 0.05 | 0.00 | 0.05 | 73 | 1018.6 |
| 20260504011845 | 18 | 272 | 6.4 | 11.3 | 0.05 | 0.00 | 0.05 | 73 | 1018.6 |
| 20260504011346 | 17 | 211 | 8.0 | 12.9 | 0.05 | 0.00 | 0.05 | 73 | 1018.6 |
| 20260504010849 | 17 | 240 | 4.8 | 9.7 | 0.05 | 0.00 | 0.05 | 77 | 1018.6 |
| 20260504010345 | 16 | 226 | 8.0 | 12.9 | 0.05 | 0.00 | 0.05 | 82 | 1018.6 |
| 20260504005845 | 15 | 231 | 1.6 | 4.8 | 0.05 | 0.00 | 0.05 | 86 | 1018.6 |
| 20260504005345 | 15 | 228 | 6.4 | 9.7 | 0.05 | 0.00 | 0.05 | 86 | 1018.6 |
| 20260504004846 | 15 | 288 | 4.8 | 9.7 | 0.05 | 0.00 | 0.05 | 86 | 1018.6 |